Mountain Home, ID

1:35 AM MDT on April 26, 2018 (GMT -0600)
Mountain Home Air Force Base

Weather History for KMUO - September, 2013

Change the Weather History Date:

Tuesday, September 24, 2013

  Actual Average Record
Temperature  
Mean Temperature 58 °F 60 °F  
Max Temperature 66 °F 76 °F 98 °F (2001)
Min Temperature 49 °F 43 °F 18 °F (1926)
Degree Days  
Heating Degree Days 7 6  
Month to date heating degree days 36 77  
Cooling Degree Days 0 2  
Month to date cooling degree days 130 84  
Growing Degree Days 6 (Base 50)    
Moisture  
Dew Point 42 °F    
Average Humidity 62    
Maximum Humidity 88    
Minimum Humidity 38    
Precipitation  
Precipitation 0.04 in 0.02 in 0.13 in (1933)
Month to date precipitation 0.03 0.39  
Sea Level Pressure  
Sea Level Pressure 29.83 in    
Wind  
Wind Speed 15 mph (North)    
Max Wind Speed 30 mph    
Max Gust Speed 44 mph    
Visibility 9 miles    
Events Rain , Thunderstorm    
T = Trace of Precipitation, MM = Missing Value Source: NWS Daily Summary

Daily Weather History Graph

Daily Weather History Graph

Search for Another Location

Airport or City:

Astronomy

Sep. 24, 2013 Rise Set
Actual Time 7:33 AM MDT 7:36 PM MDT
Civil Twilight 7:05 AM MDT 8:04 PM MDT
Nautical Twilight 6:31 AM MDT 8:37 PM MDT
Astronomical Twilight 5:58 AM MDT 9:11 PM MDT
Moon 10:49 PM MDT (9/24) 12:59 PM MDT (9/24)
Length of Visible Light 12h 59m
Length of Day
12h 03m
Waning Gibbous, 72% of the Moon is Illuminated
Sep 24
Waning Gibbous
Sep 26
Last Quarter
Oct 4
New
Oct 11
First Quarter
Oct 18
Full

Hourly Weather History & Observations

Time (MDT) Temp. Dew Point Humidity Pressure Visibility Wind Dir Wind Speed Gust Speed Precip Events Conditions
12:58 AM 55.0 °F 35.8 °F 48% 29.92 in 10.0 mi East 16.1 mph - N/A   Clear
1:58 AM 55.2 °F 36.0 °F 48% 29.86 in 10.0 mi ESE 17.3 mph - N/A   Scattered Clouds
2:58 AM 56.3 °F 37.0 °F 48% 29.86 in 10.0 mi ESE 17.3 mph - N/A   Overcast
3:58 AM 56.3 °F 37.6 °F 50% 29.85 in 10.0 mi SE 16.1 mph - N/A   Overcast
4:58 AM 57.0 °F 37.8 °F 49% 29.82 in 10.0 mi ESE 13.8 mph - N/A   Overcast
5:58 AM 56.3 °F 37.0 °F 48% 29.81 in 10.0 mi ESE 13.8 mph - N/A   Overcast
6:58 AM 56.3 °F 36.0 °F 46% 29.81 in 10.0 mi ESE 17.3 mph - N/A   Overcast
7:58 AM 55.4 °F 35.8 °F 48% 29.81 in 10.0 mi ESE 13.8 mph - N/A   Overcast
8:58 AM 56.5 °F 36.7 °F 48% 29.82 in 10.0 mi ESE 6.9 mph - N/A   Overcast
9:52 AM 57.2 °F 35.6 °F 44% 29.86 in 10.0 mi ESE 5.8 mph - N/A Rain Light Rain
9:58 AM 58.1 °F 36.5 °F 44% 29.83 in 10.0 mi East 4.6 mph - N/A   Mostly Cloudy
10:58 AM 60.3 °F 36.3 °F 41% 29.82 in 10.0 mi WNW 6.9 mph - N/A   Mostly Cloudy
11:58 AM 62.1 °F 36.3 °F 38% 29.81 in 10.0 mi NW 12.7 mph - N/A   Mostly Cloudy
12:58 PM 62.6 °F 41.7 °F 46% 29.81 in 10.0 mi NW 23.0 mph - N/A   Mostly Cloudy
1:58 PM 61.2 °F 44.4 °F 54% 29.80 in 10.0 mi NNW 25.3 mph 33.4 mph N/A   Mostly Cloudy
2:58 PM 58.3 °F 46.6 °F 65% 29.78 in 10.0 mi NNW 23.0 mph - 0.00 in   Mostly Cloudy
3:28 PM 57.2 °F 46.4 °F 67% 29.88 in 4.0 mi NW 29.9 mph 38.0 mph N/A Rain , Thunderstorm Light Rain Showers
3:43 PM 51.8 °F 46.4 °F 82% 29.90 in 3.0 mi NW 26.5 mph 43.7 mph N/A Rain , Thunderstorm Heavy Rain
3:58 PM 51.6 °F 47.8 °F 87% 29.83 in 4.0 mi NNW 23.0 mph - 0.00 in Rain Rain
4:13 PM 51.8 °F 48.2 °F 88% 29.86 in 10.0 mi North 15.0 mph 26.5 mph N/A Rain Light Rain
4:33 PM 51.8 °F 48.2 °F 88% 29.87 in 10.0 mi North 15.0 mph - N/A Rain Light Rain Showers
4:58 PM 51.4 °F 47.3 °F 86% 29.82 in 10.0 mi NNE 10.4 mph - 0.02 in   Light Drizzle
5:58 PM 55.4 °F 46.6 °F 72% 29.81 in 10.0 mi NW 4.6 mph - 0.02 in   Mostly Cloudy
6:58 PM 56.8 °F 45.7 °F 66% 29.81 in 10.0 mi NNW 12.7 mph - N/A   Mostly Cloudy
7:58 PM 52.7 °F 46.4 °F 79% 29.82 in 10.0 mi NW 8.1 mph - N/A   Mostly Cloudy
8:58 PM 51.1 °F 45.0 °F 80% 29.80 in 10.0 mi West 9.2 mph - N/A   Mostly Cloudy
9:58 PM 51.4 °F 44.8 °F 78% 29.80 in 10.0 mi WNW 10.4 mph - N/A   Mostly Cloudy
10:58 PM 50.5 °F 44.4 °F 80% 29.78 in 10.0 mi WNW 4.6 mph - N/A   Mostly Cloudy
11:58 PM 49.3 °F 45.0 °F 85% 29.80 in 10.0 mi SSW 5.8 mph - -   Overcast